Year,Month,Day,Hour,Minute,Value (Times are PST for temperature in C)
2011,02,09,00,00,-0.80
2011,02,09,00,01,-0.80
2011,02,09,00,02,-0.90
2011,02,09,00,03,-0.80
2011,02,09,00,04,-0.90
2011,02,09,00,05,-0.90
2011,02,09,00,06,-0.90
2011,02,09,00,07,-0.90
2011,02,09,00,08,-0.90
2011,02,09,00,09,-0.80
2011,02,09,00,10,-0.90
2011,02,09,00,11,-0.90
2011,02,09,00,12,-0.90
2011,02,09,00,13,-0.90
2011,02,09,00,14,-0.90
2011,02,09,00,15,-0.90
2011,02,09,00,16,-0.90
2011,02,09,00,17,-0.90
2011,02,09,00,18,-0.90
2011,02,09,00,19,-0.90
2011,02,09,00,20,-0.90
2011,02,09,00,21,-0.90
2011,02,09,00,22,-1.00
2011,02,09,00,23,-1.00
2011,02,09,00,24,-1.00
2011,02,09,00,25,-1.00
2011,02,09,00,26,-1.00
2011,02,09,00,27,-1.00
2011,02,09,00,28,-1.10
2011,02,09,00,29,-1.10
2011,02,09,00,30,-1.10
2011,02,09,00,31,-1.10
2011,02,09,00,32,-1.10
2011,02,09,00,33,-1.10
2011,02,09,00,34,-1.10
2011,02,09,00,35,-1.10
2011,02,09,00,36,-1.20
2011,02,09,00,37,-1.20
2011,02,09,00,38,-1.20
2011,02,09,00,39,-1.20
2011,02,09,00,40,-1.20
2011,02,09,00,41,-1.20
2011,02,09,00,42,-1.30
2011,02,09,00,43,-1.30
2011,02,09,00,44,-1.30
2011,02,09,00,45,-1.30
2011,02,09,00,46,-1.30
2011,02,09,00,47,-1.30
2011,02,09,00,48,-1.30
2011,02,09,00,49,-1.30
2011,02,09,00,50,-1.30
2011,02,09,00,51,-1.30
2011,02,09,00,52,-1.30
2011,02,09,00,53,-1.30
2011,02,09,00,54,-1.30
2011,02,09,00,55,-1.30
2011,02,09,00,56,-1.30
2011,02,09,00,57,-1.30
2011,02,09,00,58,-1.30
2011,02,09,00,59,-1.30
2011,02,09,01,00,-1.30
2011,02,09,01,01,-1.30
2011,02,09,01,02,-1.30
2011,02,09,01,03,-1.30
2011,02,09,01,04,-1.30
2011,02,09,01,05,-1.30
2011,02,09,01,06,-1.30
2011,02,09,01,07,-1.30
2011,02,09,01,08,-1.30
2011,02,09,01,09,-1.30
2011,02,09,01,10,-1.30
2011,02,09,01,11,-1.20
2011,02,09,01,12,-1.20
2011,02,09,01,13,-1.20
2011,02,09,01,14,-1.20
2011,02,09,01,15,-1.20
2011,02,09,01,16,-1.20
2011,02,09,01,17,-1.20
2011,02,09,01,18,-1.20
2011,02,09,01,19,-1.10
2011,02,09,01,20,-1.20
2011,02,09,01,21,-1.20
2011,02,09,01,22,-1.20
2011,02,09,01,23,-1.20
2011,02,09,01,24,-1.20
2011,02,09,01,25,-1.20
2011,02,09,01,26,-1.20
2011,02,09,01,27,-1.20
2011,02,09,01,28,-1.20
2011,02,09,01,29,-1.20
2011,02,09,01,30,-1.20
2011,02,09,01,31,-1.20
2011,02,09,01,32,-1.20
2011,02,09,01,33,-1.20
2011,02,09,01,34,-1.20
2011,02,09,01,35,-1.20
2011,02,09,01,36,-1.20
2011,02,09,01,37,-1.20
2011,02,09,01,38,-1.20
2011,02,09,01,39,-1.20
2011,02,09,01,40,-1.20
2011,02,09,01,41,-1.20
2011,02,09,01,42,-1.20
2011,02,09,01,43,-1.20
2011,02,09,01,44,-1.20
2011,02,09,01,45,-1.20
2011,02,09,01,46,-1.20
2011,02,09,01,47,-1.20
2011,02,09,01,48,-1.20
2011,02,09,01,49,-1.10
2011,02,09,01,50,-1.10
2011,02,09,01,51,-1.10
2011,02,09,01,52,-1.10
2011,02,09,01,53,-1.10
2011,02,09,01,54,-1.10
2011,02,09,01,55,-1.10
2011,02,09,01,56,-1.10
2011,02,09,01,57,-1.10
2011,02,09,01,58,-1.10
2011,02,09,01,59,-1.10
2011,02,09,02,00,-1.10
2011,02,09,02,01,-1.10
2011,02,09,02,02,-1.10
2011,02,09,02,03,-1.10
2011,02,09,02,04,-1.10
2011,02,09,02,05,-1.10
2011,02,09,02,06,-1.10
2011,02,09,02,07,-1.10
2011,02,09,02,08,-1.10
2011,02,09,02,09,-1.10
2011,02,09,02,10,-1.10
2011,02,09,02,11,-1.10
2011,02,09,02,12,-1.10
2011,02,09,02,13,-1.10
2011,02,09,02,14,-1.00
2011,02,09,02,15,-1.00
2011,02,09,02,16,-1.00
2011,02,09,02,17,-1.00
2011,02,09,02,18,-1.00
2011,02,09,02,19,-1.00
2011,02,09,02,20,-1.00
2011,02,09,02,21,-1.00
2011,02,09,02,22,-1.00
2011,02,09,02,23,-1.00
2011,02,09,02,24,-1.00
2011,02,09,02,25,-0.90
2011,02,09,02,26,-0.90
2011,02,09,02,27,-0.90
2011,02,09,02,28,-0.90
2011,02,09,02,29,-0.90
2011,02,09,02,30,-0.90
2011,02,09,02,31,-0.90
2011,02,09,02,32,-0.90
2011,02,09,02,33,-1.00
2011,02,09,02,34,-1.00
2011,02,09,02,35,-1.00
2011,02,09,02,36,-1.00
2011,02,09,02,37,-1.00
2011,02,09,02,38,-1.00
2011,02,09,02,39,-1.10
2011,02,09,02,40,-1.10
2011,02,09,02,41,-1.10
2011,02,09,02,42,-1.10
2011,02,09,02,43,-1.10
2011,02,09,02,44,-1.10
2011,02,09,02,45,-1.10
2011,02,09,02,46,-1.10
2011,02,09,02,47,-1.20
2011,02,09,02,48,-1.10
2011,02,09,02,49,-1.20
2011,02,09,02,50,-1.20
2011,02,09,02,51,-1.20
2011,02,09,02,52,-1.20
2011,02,09,02,53,-1.30
2011,02,09,02,54,-1.30
2011,02,09,02,55,-1.30
2011,02,09,02,56,-1.30
2011,02,09,02,57,-1.30
2011,02,09,02,58,-1.30
2011,02,09,02,59,-1.30
2011,02,09,03,00,-1.30
2011,02,09,03,01,-1.30
2011,02,09,03,02,-1.30
2011,02,09,03,03,-1.30
2011,02,09,03,04,-1.30
2011,02,09,03,05,-1.30
2011,02,09,03,06,-1.40
2011,02,09,03,07,-1.40
2011,02,09,03,08,-1.40
2011,02,09,03,09,-1.40
2011,02,09,03,10,-1.40
2011,02,09,03,11,-1.50
2011,02,09,03,12,-1.50
2011,02,09,03,13,-1.50
2011,02,09,03,14,-1.50
2011,02,09,03,15,-1.60
2011,02,09,03,16,-1.60
2011,02,09,03,17,-1.60
2011,02,09,03,18,-1.60
2011,02,09,03,19,-1.70
2011,02,09,03,20,-1.70
2011,02,09,03,21,-1.70
2011,02,09,03,22,-1.70
2011,02,09,03,23,-1.80
2011,02,09,03,24,-1.80
2011,02,09,03,25,-1.70
2011,02,09,03,26,-1.70
2011,02,09,03,27,-1.70
2011,02,09,03,28,-1.70
2011,02,09,03,29,-1.70
2011,02,09,03,30,-1.60
2011,02,09,03,31,-1.60
2011,02,09,03,32,-1.60
2011,02,09,03,33,-1.60
2011,02,09,03,34,-1.60
2011,02,09,03,35,-1.50
2011,02,09,03,36,-1.50
2011,02,09,03,37,-1.50
2011,02,09,03,38,-1.40
2011,02,09,03,39,-1.40
2011,02,09,03,40,-1.40
2011,02,09,03,41,-1.40
2011,02,09,03,42,-1.40
2011,02,09,03,43,-1.30
2011,02,09,03,44,-1.30
2011,02,09,03,45,-1.30
2011,02,09,03,46,-1.30
2011,02,09,03,47,-1.30
2011,02,09,03,48,-1.30
2011,02,09,03,49,-1.30
2011,02,09,03,50,-1.30
2011,02,09,03,51,-1.30
2011,02,09,03,52,-1.30
2011,02,09,03,53,-1.30
2011,02,09,03,54,-1.30
2011,02,09,03,55,-1.30
2011,02,09,03,56,-1.30
2011,02,09,03,57,-1.30
2011,02,09,03,58,-1.30
2011,02,09,03,59,-1.30
2011,02,09,04,00,-1.30
2011,02,09,04,01,-1.30
2011,02,09,04,02,-1.30
2011,02,09,04,03,-1.30
2011,02,09,04,04,-1.30
2011,02,09,04,05,-1.30
2011,02,09,04,06,-1.30
2011,02,09,04,07,-1.30
2011,02,09,04,08,-1.30
2011,02,09,04,09,-1.30
2011,02,09,04,10,-1.30
2011,02,09,04,11,-1.30
2011,02,09,04,12,-1.30
2011,02,09,04,13,-1.30
2011,02,09,04,14,-1.30
2011,02,09,04,15,-1.30
2011,02,09,04,16,-1.30
2011,02,09,04,17,-1.30
2011,02,09,04,18,-1.30
2011,02,09,04,19,-1.30
2011,02,09,04,20,-1.30
2011,02,09,04,21,-1.40
2011,02,09,04,22,-1.40
2011,02,09,04,23,-1.40
2011,02,09,04,24,-1.40
2011,02,09,04,25,-1.40
2011,02,09,04,26,-1.40
2011,02,09,04,27,-1.40
2011,02,09,04,28,-1.40
2011,02,09,04,29,-1.40
2011,02,09,04,30,-1.40
2011,02,09,04,31,-1.40
2011,02,09,04,32,-1.40
2011,02,09,04,33,-1.50
2011,02,09,04,34,-1.50
2011,02,09,04,35,-1.50
2011,02,09,04,36,-1.50
2011,02,09,04,37,-1.50
2011,02,09,04,38,-1.50
2011,02,09,04,39,-1.60
2011,02,09,04,40,-1.60
2011,02,09,04,41,-1.60
2011,02,09,04,42,-1.60
2011,02,09,04,43,-1.60
2011,02,09,04,44,-1.60
2011,02,09,04,45,-1.60
2011,02,09,04,46,-1.60
2011,02,09,04,47,-1.60
2011,02,09,04,48,-1.60
2011,02,09,04,49,-1.60
2011,02,09,04,50,-1.60
2011,02,09,04,51,-1.70
2011,02,09,04,52,-1.70
2011,02,09,04,53,-1.70
2011,02,09,04,54,-1.70
2011,02,09,04,55,-1.70
2011,02,09,04,56,-1.70
2011,02,09,04,57,-1.70
2011,02,09,04,58,-1.70
2011,02,09,04,59,-1.80
2011,02,09,05,00,-1.80
2011,02,09,05,01,-1.80
2011,02,09,05,02,-1.80
2011,02,09,05,03,-1.80
2011,02,09,05,04,-1.80
2011,02,09,05,05,-1.90
2011,02,09,05,06,-1.90
2011,02,09,05,07,-1.90
2011,02,09,05,08,-1.90
2011,02,09,05,09,-1.90
2011,02,09,05,10,-1.90
2011,02,09,05,11,-1.90
2011,02,09,05,12,-1.90
2011,02,09,05,13,-1.90
2011,02,09,05,14,-1.90
2011,02,09,05,15,-1.90
2011,02,09,05,16,-1.90
2011,02,09,05,17,-1.90
2011,02,09,05,18,-1.90
2011,02,09,05,19,-1.90
2011,02,09,05,20,-1.90
2011,02,09,05,21,-1.90
2011,02,09,05,22,-1.90
2011,02,09,05,23,-2.00
2011,02,09,05,24,-2.00
2011,02,09,05,25,-2.00
2011,02,09,05,26,-2.00
2011,02,09,05,27,-2.00
2011,02,09,05,28,-2.10
2011,02,09,05,29,-2.00
2011,02,09,05,30,-2.00
2011,02,09,05,31,-2.00
2011,02,09,05,32,-2.00
2011,02,09,05,33,-2.00
2011,02,09,05,34,-2.00
2011,02,09,05,35,-2.10
2011,02,09,05,36,-2.10
2011,02,09,05,37,-2.10
2011,02,09,05,38,-2.10
2011,02,09,05,39,-2.00
2011,02,09,05,40,-2.00
2011,02,09,05,41,-2.00
2011,02,09,05,42,-2.00
2011,02,09,05,43,-1.90
2011,02,09,05,44,-1.90
2011,02,09,05,45,-1.90
2011,02,09,05,46,-1.90
2011,02,09,05,47,-1.80
2011,02,09,05,48,-1.80
2011,02,09,05,49,-1.80
2011,02,09,05,50,-1.80
2011,02,09,05,51,-1.80
2011,02,09,05,52,-1.80
2011,02,09,05,53,-1.80
2011,02,09,05,54,-1.80
2011,02,09,05,55,-1.80
2011,02,09,05,56,-1.80
2011,02,09,05,57,-1.80
2011,02,09,05,58,-1.80
2011,02,09,05,59,-1.80
2011,02,09,06,00,-1.80
2011,02,09,06,01,-1.80
2011,02,09,06,02,-1.80
2011,02,09,06,03,-1.80
2011,02,09,06,04,-1.80
2011,02,09,06,05,-1.80
2011,02,09,06,06,-1.80
2011,02,09,06,07,-1.80
2011,02,09,06,08,-1.80
2011,02,09,06,09,-1.80
2011,02,09,06,10,-1.80
2011,02,09,06,11,-1.90
2011,02,09,06,12,-1.90
2011,02,09,06,13,-1.90
2011,02,09,06,14,-1.90
2011,02,09,06,15,-1.90
2011,02,09,06,16,-1.90
2011,02,09,06,17,-1.90
2011,02,09,06,18,-1.90
2011,02,09,06,19,-1.90
2011,02,09,06,20,-1.90
2011,02,09,06,21,-1.90
2011,02,09,06,22,-1.90
2011,02,09,06,23,-1.90
2011,02,09,06,24,-1.90
2011,02,09,06,25,-1.90
2011,02,09,06,26,-1.90
2011,02,09,06,27,-1.90
2011,02,09,06,28,-1.90
2011,02,09,06,29,-1.90
2011,02,09,06,30,-1.80
2011,02,09,06,31,-1.80
2011,02,09,06,32,-1.80
2011,02,09,06,33,-1.80
2011,02,09,06,34,-1.80
2011,02,09,06,35,-1.80
2011,02,09,06,36,-1.80
2011,02,09,06,37,-1.80
2011,02,09,06,38,-1.80
2011,02,09,06,39,-1.80
2011,02,09,06,40,-1.80
2011,02,09,06,41,-1.80
2011,02,09,06,42,-1.80
2011,02,09,06,43,-1.80
2011,02,09,06,44,-1.80
2011,02,09,06,45,-1.80
2011,02,09,06,46,-1.80
2011,02,09,06,47,-1.80
2011,02,09,06,48,-1.80
2011,02,09,06,49,-1.80
2011,02,09,06,50,-1.80
2011,02,09,06,51,-1.90
2011,02,09,06,52,-1.90
2011,02,09,06,53,-1.90
2011,02,09,06,54,-1.90
2011,02,09,06,55,-1.90
2011,02,09,06,56,-1.90
2011,02,09,06,57,-1.90
2011,02,09,06,58,-1.90
2011,02,09,06,59,-1.90
2011,02,09,07,00,-1.90
2011,02,09,07,01,-1.90
2011,02,09,07,02,-1.90
2011,02,09,07,03,-1.90
2011,02,09,07,04,-1.90
2011,02,09,07,05,-1.90
2011,02,09,07,06,-2.00
2011,02,09,07,07,-2.00
2011,02,09,07,08,-2.00
2011,02,09,07,09,-2.00
2011,02,09,07,10,-1.90
2011,02,09,07,11,-1.90
2011,02,09,07,12,-1.90
2011,02,09,07,13,-1.90
2011,02,09,07,14,-1.90
2011,02,09,07,15,-1.90
2011,02,09,07,16,-1.90
2011,02,09,07,17,-1.90
2011,02,09,07,18,-1.80
2011,02,09,07,19,-1.80
2011,02,09,07,20,-1.80
2011,02,09,07,21,-1.80
2011,02,09,07,22,-1.80
2011,02,09,07,23,-1.80
2011,02,09,07,24,-1.80
2011,02,09,07,25,-1.80
2011,02,09,07,26,-1.80
2011,02,09,07,27,-1.80
2011,02,09,07,28,-1.80
2011,02,09,07,29,-1.80
2011,02,09,07,30,-1.80
2011,02,09,07,31,-1.80
2011,02,09,07,32,-1.80
2011,02,09,07,33,-1.80
2011,02,09,07,34,-1.80
2011,02,09,07,35,-1.80
2011,02,09,07,36,-1.80
2011,02,09,07,37,-1.80
2011,02,09,07,38,-1.80
2011,02,09,07,39,-1.80
2011,02,09,07,40,-1.80
2011,02,09,07,41,-1.80
2011,02,09,07,42,-1.80
2011,02,09,07,43,-1.80
2011,02,09,07,44,-1.80
2011,02,09,07,45,-1.80
2011,02,09,07,46,-1.80
2011,02,09,07,47,-1.80
2011,02,09,07,48,-1.80
2011,02,09,07,49,-1.80
2011,02,09,07,50,-1.80
2011,02,09,07,51,-1.80
2011,02,09,07,52,-1.80
2011,02,09,07,53,-1.80
2011,02,09,07,54,-1.80
2011,02,09,07,55,-1.80
2011,02,09,07,56,-1.80
2011,02,09,07,57,-1.80
2011,02,09,07,58,-1.80
2011,02,09,07,59,-1.80
2011,02,09,08,00,-1.80
2011,02,09,08,01,-1.80
2011,02,09,08,02,-1.80
2011,02,09,08,03,-1.80
2011,02,09,08,04,-1.80
2011,02,09,08,05,-1.80
2011,02,09,08,06,-1.80
2011,02,09,08,07,-1.80
2011,02,09,08,08,-1.80
2011,02,09,08,09,-1.80
2011,02,09,08,10,-1.80
2011,02,09,08,11,-1.80
2011,02,09,08,12,-1.80
2011,02,09,08,13,-1.80
2011,02,09,08,14,-1.80
2011,02,09,08,15,-1.80
2011,02,09,08,16,-1.80
2011,02,09,08,17,-1.80
2011,02,09,08,18,-1.80
2011,02,09,08,19,-1.80
2011,02,09,08,20,-1.80
2011,02,09,08,21,-1.80
2011,02,09,08,22,-1.80
2011,02,09,08,23,-1.80
2011,02,09,08,24,-1.80
2011,02,09,08,25,-1.70
2011,02,09,08,26,-1.80
2011,02,09,08,27,-1.80
2011,02,09,08,28,-1.70
2011,02,09,08,29,-1.70
2011,02,09,08,30,-1.70
2011,02,09,08,31,-1.70
2011,02,09,08,32,-1.70
2011,02,09,08,33,-1.70
2011,02,09,08,34,-1.70
2011,02,09,08,35,-1.70
2011,02,09,08,36,-1.70
2011,02,09,08,37,-1.70
2011,02,09,08,38,-1.70
2011,02,09,08,39,-1.70
2011,02,09,08,40,-1.70
2011,02,09,08,41,-1.70
2011,02,09,08,42,-1.70
2011,02,09,08,43,-1.70
2011,02,09,08,44,-1.70
2011,02,09,08,45,-1.70
2011,02,09,08,46,-1.60
2011,02,09,08,47,-1.60
2011,02,09,08,48,-1.60
2011,02,09,08,49,-1.60
2011,02,09,08,50,-1.60
2011,02,09,08,51,-1.60
2011,02,09,08,52,-1.60
2011,02,09,08,53,-1.60
2011,02,09,08,54,-1.50
2011,02,09,08,55,-1.50
2011,02,09,08,56,-1.50
2011,02,09,08,57,-1.50
2011,02,09,08,58,-1.40
2011,02,09,08,59,-1.40
2011,02,09,09,00,-1.40
2011,02,09,09,01,-1.40
2011,02,09,09,02,-1.30
2011,02,09,09,03,-1.30
2011,02,09,09,04,-1.30
2011,02,09,09,05,-1.30
2011,02,09,09,06,-1.30
2011,02,09,09,07,-1.20
2011,02,09,09,08,-1.20
2011,02,09,09,09,-1.20
2011,02,09,09,10,-1.20
2011,02,09,09,11,-1.10
2011,02,09,09,12,-1.10
2011,02,09,09,13,-1.10
2011,02,09,09,14,-1.10
2011,02,09,09,15,-1.10
2011,02,09,09,16,-1.10
2011,02,09,09,17,-1.10
2011,02,09,09,18,-1.00
2011,02,09,09,19,-1.00
2011,02,09,09,20,-1.00
2011,02,09,09,21,-0.90
2011,02,09,09,22,-0.90
2011,02,09,09,23,-0.90
2011,02,09,09,24,-0.90
2011,02,09,09,25,-0.90
2011,02,09,09,26,-0.80
2011,02,09,09,27,-0.80
2011,02,09,09,28,-0.80
2011,02,09,09,29,-0.80
2011,02,09,09,30,-0.80
2011,02,09,09,31,-0.70
2011,02,09,09,32,-0.70
2011,02,09,09,33,-0.70
2011,02,09,09,34,-0.70
2011,02,09,09,35,-0.70
2011,02,09,09,36,-0.60
2011,02,09,09,37,-0.60
2011,02,09,09,38,-0.50
2011,02,09,09,39,-0.50
2011,02,09,09,40,-0.40
2011,02,09,09,41,-0.40
2011,02,09,09,42,-0.30
2011,02,09,09,43,-0.30
2011,02,09,09,44,-0.30
2011,02,09,09,45,-0.30
2011,02,09,09,46,-0.30
2011,02,09,09,47,-0.20
2011,02,09,09,48,-0.20
2011,02,09,09,49,-0.20
2011,02,09,09,50,-0.20
2011,02,09,09,51,-0.10
2011,02,09,09,52,-0.10
2011,02,09,09,53,0.00
2011,02,09,09,54,0.00
2011,02,09,09,55,0.10
2011,02,09,09,56,0.10
2011,02,09,09,57,0.10
2011,02,09,09,58,0.20
2011,02,09,09,59,0.20
2011,02,09,10,00,0.20
2011,02,09,10,01,0.20
2011,02,09,10,02,0.20
2011,02,09,10,03,0.20
2011,02,09,10,04,0.30
2011,02,09,10,05,0.30
2011,02,09,10,06,0.30
2011,02,09,10,07,0.30
2011,02,09,10,08,0.30
2011,02,09,10,09,0.40
2011,02,09,10,10,0.40
2011,02,09,10,11,0.50
2011,02,09,10,12,0.50
2011,02,09,10,13,0.60
2011,02,09,10,14,0.60
2011,02,09,10,15,0.60
2011,02,09,10,16,0.70
2011,02,09,10,17,0.70
2011,02,09,10,18,0.80
2011,02,09,10,19,0.80
2011,02,09,10,20,0.80
2011,02,09,10,21,0.80
2011,02,09,10,22,0.90
2011,02,09,10,23,0.90
2011,02,09,10,24,1.00
2011,02,09,10,25,1.00
2011,02,09,10,26,1.10
2011,02,09,10,27,1.10
2011,02,09,10,28,1.20
2011,02,09,10,29,1.20
2011,02,09,10,30,1.30
2011,02,09,10,31,1.30
2011,02,09,10,32,1.30
2011,02,09,10,33,1.30
2011,02,09,10,34,1.30
2011,02,09,10,35,1.40
2011,02,09,10,36,1.50
2011,02,09,10,37,1.60
2011,02,09,10,38,1.70
2011,02,09,10,39,1.70
2011,02,09,10,40,1.70
2011,02,09,10,41,1.80
2011,02,09,10,42,1.80
2011,02,09,10,43,1.90
2011,02,09,10,44,1.90
2011,02,09,10,45,2.00
2011,02,09,10,46,2.10
2011,02,09,10,47,2.10
2011,02,09,10,48,2.10
2011,02,09,10,49,2.20
2011,02,09,10,50,2.20
2011,02,09,10,51,2.30
2011,02,09,10,52,2.40
2011,02,09,10,53,2.40
2011,02,09,10,54,2.50
2011,02,09,10,55,2.60
2011,02,09,10,56,2.70
2011,02,09,10,57,2.80
2011,02,09,10,58,2.90
2011,02,09,10,59,3.00
2011,02,09,11,00,3.10
2011,02,09,11,01,3.20
2011,02,09,11,02,3.30
2011,02,09,11,03,3.30
2011,02,09,11,04,3.30
2011,02,09,11,05,3.30
2011,02,09,11,06,3.40
2011,02,09,11,07,3.40
2011,02,09,11,08,3.40
2011,02,09,11,09,3.40
2011,02,09,11,10,3.40
2011,02,09,11,11,3.40
2011,02,09,11,12,3.40
2011,02,09,11,13,3.40
2011,02,09,11,14,3.40
2011,02,09,11,15,3.40
2011,02,09,11,16,3.40
2011,02,09,11,17,3.40
2011,02,09,11,18,3.40
2011,02,09,11,19,3.50
2011,02,09,11,20,3.50
2011,02,09,11,21,3.50
2011,02,09,11,22,3.50
2011,02,09,11,23,3.60
2011,02,09,11,24,3.60
2011,02,09,11,25,3.60
2011,02,09,11,26,3.70
2011,02,09,11,27,3.70
2011,02,09,11,28,3.70
2011,02,09,11,29,3.70
2011,02,09,11,30,3.70
2011,02,09,11,31,3.70
2011,02,09,11,32,3.70
2011,02,09,11,33,3.70
2011,02,09,11,34,3.70
2011,02,09,11,35,3.70
2011,02,09,11,36,3.70
2011,02,09,11,37,3.70
2011,02,09,11,38,3.70
2011,02,09,11,39,3.70
2011,02,09,11,40,3.70
2011,02,09,11,41,3.70
2011,02,09,11,42,3.70
2011,02,09,11,43,3.70
2011,02,09,11,44,3.70
2011,02,09,11,45,3.80
2011,02,09,11,46,3.80
2011,02,09,11,47,3.80
2011,02,09,11,48,3.80
2011,02,09,11,49,3.90
2011,02,09,11,50,3.90
2011,02,09,11,51,4.00
2011,02,09,11,52,4.10
2011,02,09,11,53,4.20
2011,02,09,11,54,4.20
2011,02,09,11,55,4.30
2011,02,09,11,56,4.30
2011,02,09,11,57,4.30
2011,02,09,11,58,4.40
2011,02,09,11,59,4.40
2011,02,09,12,00,4.40
2011,02,09,12,01,4.40
2011,02,09,12,02,4.50
2011,02,09,12,03,4.50
2011,02,09,12,04,4.60
2011,02,09,12,05,4.60
2011,02,09,12,06,4.60
2011,02,09,12,07,4.70
2011,02,09,12,08,4.80
2011,02,09,12,09,4.80
2011,02,09,12,10,4.90
2011,02,09,12,11,5.00
2011,02,09,12,12,5.00
2011,02,09,12,13,5.10
2011,02,09,12,14,5.10
2011,02,09,12,15,5.20
2011,02,09,12,16,5.20
2011,02,09,12,17,5.30
2011,02,09,12,18,5.30
2011,02,09,12,19,5.40
2011,02,09,12,20,5.40
2011,02,09,12,21,5.50
2011,02,09,12,22,5.50
2011,02,09,12,23,5.60
2011,02,09,12,24,5.60
2011,02,09,12,25,5.60
2011,02,09,12,26,5.60
2011,02,09,12,27,5.60
2011,02,09,12,28,5.60
2011,02,09,12,29,5.60
2011,02,09,12,30,5.70
2011,02,09,12,31,5.70
2011,02,09,12,32,5.80
2011,02,09,12,33,5.80
2011,02,09,12,34,5.80
2011,02,09,12,35,5.90
2011,02,09,12,36,5.90
2011,02,09,12,37,5.90
2011,02,09,12,38,6.00
2011,02,09,12,39,6.00
2011,02,09,12,40,6.10
2011,02,09,12,41,6.10
2011,02,09,12,42,6.20
2011,02,09,12,43,6.20
2011,02,09,12,44,6.30
2011,02,09,12,45,6.30
2011,02,09,12,46,6.40
2011,02,09,12,47,6.30
2011,02,09,12,48,6.30
2011,02,09,12,49,6.20
2011,02,09,12,50,6.10
2011,02,09,12,51,6.00
2011,02,09,12,52,6.00
2011,02,09,12,53,5.90
2011,02,09,12,54,5.90
2011,02,09,12,55,5.90
2011,02,09,12,56,5.90
2011,02,09,12,57,6.00
2011,02,09,12,58,6.10
2011,02,09,12,59,6.10
2011,02,09,13,00,6.20
2011,02,09,13,01,6.20
2011,02,09,13,02,6.20
2011,02,09,13,03,6.20
2011,02,09,13,04,6.20
2011,02,09,13,05,6.20
2011,02,09,13,06,6.20
2011,02,09,13,07,6.20
2011,02,09,13,08,6.10
2011,02,09,13,09,6.00
2011,02,09,13,10,6.00
2011,02,09,13,11,6.00
2011,02,09,13,12,6.00
2011,02,09,13,13,6.10
2011,02,09,13,14,6.10
2011,02,09,13,15,6.10
2011,02,09,13,16,6.20
2011,02,09,13,17,6.20
2011,02,09,13,18,6.30
2011,02,09,13,19,6.30
2011,02,09,13,20,6.20
2011,02,09,13,21,6.20
2011,02,09,13,22,6.10
2011,02,09,13,23,6.10
2011,02,09,13,24,6.10
2011,02,09,13,25,6.10
2011,02,09,13,26,6.20
2011,02,09,13,27,6.20
2011,02,09,13,28,6.30
2011,02,09,13,29,6.30
2011,02,09,13,30,6.40
2011,02,09,13,31,6.50
2011,02,09,13,32,6.50
2011,02,09,13,33,6.50
2011,02,09,13,34,6.50
2011,02,09,13,35,6.50
2011,02,09,13,36,6.40
2011,02,09,13,37,6.40
2011,02,09,13,38,6.30
2011,02,09,13,39,6.30
2011,02,09,13,40,6.30
2011,02,09,13,41,6.30
2011,02,09,13,42,6.30
2011,02,09,13,43,6.30
2011,02,09,13,44,6.30
2011,02,09,13,45,6.30
2011,02,09,13,46,6.30
2011,02,09,13,47,6.30
2011,02,09,13,48,6.30
2011,02,09,13,49,6.20
2011,02,09,13,50,6.20
2011,02,09,13,51,6.20
2011,02,09,13,52,6.20
2011,02,09,13,53,6.10
2011,02,09,13,54,6.10
2011,02,09,13,55,6.10
2011,02,09,13,56,6.10
2011,02,09,13,57,6.10
2011,02,09,13,58,6.10
2011,02,09,13,59,6.10
2011,02,09,14,00,6.00
2011,02,09,14,01,5.90
2011,02,09,14,02,5.80
2011,02,09,14,03,5.80
2011,02,09,14,04,5.70
2011,02,09,14,05,5.70
2011,02,09,14,06,5.70
2011,02,09,14,07,5.60
2011,02,09,14,08,5.60
2011,02,09,14,09,5.60
2011,02,09,14,10,5.50
2011,02,09,14,11,5.50
2011,02,09,14,12,5.50
2011,02,09,14,13,5.40
2011,02,09,14,14,5.40
2011,02,09,14,15,5.40
2011,02,09,14,16,5.30
2011,02,09,14,17,5.30
2011,02,09,14,18,5.30
2011,02,09,14,19,5.30
2011,02,09,14,20,5.30
2011,02,09,14,21,5.30
2011,02,09,14,22,5.30
2011,02,09,14,23,5.30
2011,02,09,14,24,5.30
2011,02,09,14,25,5.30
2011,02,09,14,26,5.30
2011,02,09,14,27,5.30
2011,02,09,14,28,5.30
2011,02,09,14,29,5.30
2011,02,09,14,30,5.30
2011,02,09,14,31,5.30
2011,02,09,14,32,5.30
2011,02,09,14,33,5.20
2011,02,09,14,34,5.20
2011,02,09,14,35,5.20
2011,02,09,14,36,5.20
2011,02,09,14,37,5.20
2011,02,09,14,38,5.20
2011,02,09,14,39,5.10
2011,02,09,14,40,5.10
2011,02,09,14,41,5.10
2011,02,09,14,42,5.10
2011,02,09,14,43,5.10
2011,02,09,14,44,5.10
2011,02,09,14,45,5.10
2011,02,09,14,46,5.10
2011,02,09,14,47,5.10
2011,02,09,14,48,5.10
2011,02,09,14,49,5.10
2011,02,09,14,50,5.10
2011,02,09,14,51,5.10
2011,02,09,14,52,5.10
2011,02,09,14,53,5.10
2011,02,09,14,54,5.10
2011,02,09,14,55,5.10
2011,02,09,14,56,5.00
2011,02,09,14,57,5.00
2011,02,09,14,58,5.00
2011,02,09,14,59,5.00
2011,02,09,15,00,5.00
2011,02,09,15,01,5.00
2011,02,09,15,02,5.00
2011,02,09,15,03,5.00
2011,02,09,15,04,5.00
2011,02,09,15,05,5.00
2011,02,09,15,06,5.00
2011,02,09,15,07,4.90
2011,02,09,15,08,4.90
2011,02,09,15,09,4.90
2011,02,09,15,10,4.90
2011,02,09,15,11,4.80
2011,02,09,15,12,4.80
2011,02,09,15,13,4.80
2011,02,09,15,14,4.80
2011,02,09,15,15,4.80
2011,02,09,15,16,4.80
2011,02,09,15,17,4.80
2011,02,09,15,18,4.80
2011,02,09,15,19,4.80
2011,02,09,15,20,4.90
2011,02,09,15,21,4.90
2011,02,09,15,22,4.90
2011,02,09,15,23,5.00
2011,02,09,15,24,5.00
2011,02,09,15,25,5.10
2011,02,09,15,26,5.10
2011,02,09,15,27,5.10
2011,02,09,15,28,5.10
2011,02,09,15,29,5.10
2011,02,09,15,30,5.10
2011,02,09,15,31,5.10
2011,02,09,15,32,5.10
2011,02,09,15,33,5.10
2011,02,09,15,34,5.10
2011,02,09,15,35,5.00
2011,02,09,15,36,5.00
2011,02,09,15,37,5.00
2011,02,09,15,38,5.00
2011,02,09,15,39,4.90
2011,02,09,15,40,5.00
2011,02,09,15,41,5.00
2011,02,09,15,42,5.00
2011,02,09,15,43,5.10
2011,02,09,15,44,5.10
2011,02,09,15,45,5.10
2011,02,09,15,46,5.20
2011,02,09,15,47,5.20
2011,02,09,15,48,5.30
2011,02,09,15,49,5.30
2011,02,09,15,50,5.30
2011,02,09,15,51,5.40
2011,02,09,15,52,5.40
2011,02,09,15,53,5.40
2011,02,09,15,54,5.40
2011,02,09,15,55,5.40
2011,02,09,15,56,5.40
2011,02,09,15,57,5.40
2011,02,09,15,58,5.40
2011,02,09,15,59,5.30
2011,02,09,16,00,5.30
2011,02,09,16,01,5.20
2011,02,09,16,02,5.20
2011,02,09,16,03,5.20
2011,02,09,16,04,5.20
2011,02,09,16,05,5.20
2011,02,09,16,06,5.20
2011,02,09,16,07,5.20
2011,02,09,16,08,5.20
2011,02,09,16,09,5.20
2011,02,09,16,10,5.20
2011,02,09,16,11,5.20
2011,02,09,16,12,5.10
2011,02,09,16,13,5.10
2011,02,09,16,14,5.10
2011,02,09,16,15,5.10
2011,02,09,16,16,5.00
2011,02,09,16,17,5.00
2011,02,09,16,18,4.90
2011,02,09,16,19,4.90
2011,02,09,16,20,4.90
2011,02,09,16,21,4.90
2011,02,09,16,22,4.80
2011,02,09,16,23,4.80
2011,02,09,16,24,4.80
2011,02,09,16,25,4.80
2011,02,09,16,26,4.70
2011,02,09,16,27,4.70
2011,02,09,16,28,4.70
2011,02,09,16,29,4.70
2011,02,09,16,30,4.60
2011,02,09,16,31,4.60
2011,02,09,16,32,4.50
2011,02,09,16,33,4.50
2011,02,09,16,34,4.40
2011,02,09,16,35,4.40
2011,02,09,16,36,4.40
2011,02,09,16,37,4.30
2011,02,09,16,38,4.30
2011,02,09,16,39,4.30
2011,02,09,16,40,4.20
2011,02,09,16,41,4.20
2011,02,09,16,42,4.20
2011,02,09,16,43,4.10
2011,02,09,16,44,4.10
2011,02,09,16,45,4.10
2011,02,09,16,46,4.00
2011,02,09,16,47,4.00
2011,02,09,16,48,3.90
2011,02,09,16,49,3.90
2011,02,09,16,50,3.90
2011,02,09,16,51,3.80
2011,02,09,16,52,3.80
2011,02,09,16,53,3.80
2011,02,09,16,54,3.80
2011,02,09,16,55,3.80
2011,02,09,16,56,3.70
2011,02,09,16,57,3.70
2011,02,09,16,58,3.70
2011,02,09,16,59,3.70
2011,02,09,17,00,3.60
2011,02,09,17,01,3.60
2011,02,09,17,02,3.60
2011,02,09,17,03,3.60
2011,02,09,17,04,3.50
2011,02,09,17,05,3.50
2011,02,09,17,06,3.50
2011,02,09,17,07,3.40
2011,02,09,17,08,3.40
2011,02,09,17,09,3.40
2011,02,09,17,10,3.40
2011,02,09,17,11,3.30
2011,02,09,17,12,3.30
2011,02,09,17,13,3.30
2011,02,09,17,14,3.30
2011,02,09,17,15,3.30
2011,02,09,17,16,3.20
2011,02,09,17,17,3.20
2011,02,09,17,18,3.20
2011,02,09,17,19,3.20
2011,02,09,17,20,3.20
2011,02,09,17,21,3.10
2011,02,09,17,22,3.10
2011,02,09,17,23,3.10
2011,02,09,17,24,3.00
2011,02,09,17,25,3.00
2011,02,09,17,26,3.00
2011,02,09,17,27,2.90
2011,02,09,17,28,2.90
2011,02,09,17,29,2.80
2011,02,09,17,30,2.80
2011,02,09,17,31,2.80
2011,02,09,17,32,2.80
2011,02,09,17,33,2.70
2011,02,09,17,34,2.70
2011,02,09,17,35,2.70
2011,02,09,17,36,2.70
2011,02,09,17,37,2.70
2011,02,09,17,38,2.70
2011,02,09,17,39,2.60